Simultaneous Nadir Overpasses (SNOs) Predictions

Prediction of SNOs between AQUA and GOES-15 Satellite Orbit:

Table of predicted SNOs for the next 14.0 days since TLE Epoch: 11/9/2024
Index Date Time (AQUA) AQUA Lat,Lon GOES-15 Lat,Lon Distance(km) Time Diff (sec)
1 11/09/2024 21:59:30 -0.79, 65.48 0.05, 61.48 454.53 80
2 11/10/2024 10:19:19 -0.19, 60.68 -0.03, 61.56 98.83 80
3 11/12/2024 10:00:54 0.72, 65.20 -0.03, 61.58 410.53 80
4 11/12/2024 22:20:33 0.27, 60.44 0.01, 61.52 123.07 80
5 11/14/2024 22:02:06 -0.70, 64.95 0.03, 61.56 386.48 80
6 11/15/2024 10:21:52 -0.30, 60.17 -0.01, 61.65 167.87 80
7 11/17/2024 10:03:21 0.61, 64.70 -0.02, 61.69 342.77 80
8 11/17/2024 22:22:59 0.36, 59.95 0.00, 61.61 189.14 80
9 11/19/2024 22:04:26 -0.61, 64.49 0.02, 61.67 321.70 80
10 11/20/2024 10:24:10 -0.46, 59.72 0.01, 61.77 233.47 80
11 11/22/2024 10:05:34 0.51, 64.28 -0.00, 61.82 279.31 80
12 11/22/2024 22:25:11 0.44, 59.52 -0.02, 61.73 250.65 80
